User: anonymous   Login
Location: Bergnerzell
(49.1816°N, 10.2565°E)
Time: 18:04:25
(UTC+00:00)
Language:

Cosmos 1400 Rocket - Orbit

View from above orbital plane
View from above orbital plane
View from above satellite
View from above satellite

Ground track
Ground track

The orbit data is extracted from the following two-line orbital elements,

1 13403U 82079B   24201.95338019  .00007997  00000-0  42332-3 0  9993
2 13403  81.1490 174.0975 0030151  20.7269 339.5174 15.14908856286875
Epoch (UTC): 19 July 2024 22:52:52
Eccentricity: 0.0030151
inclination: 81.1490°
perigee height: 500 km
apogee height: 542 km
right ascension of ascending node: 174.0975°
argument of perigee: 20.7269°
revolutions per day: 15.14908856
mean anomaly at epoch: 339.5174°
orbit number at epoch: 28687

The dashed part of the orbit path shows where the satellite is in the earth's shadow,  

DLR